Flag Weather past 2 weeks in Erding, Bavaria, Germany

Now
46 °F

Cool.


Feels Like: 44 °F
Forecast: 43 / 60 °F
Wind: 6 mph from Southeast

Location: Erding Airport

Current Time: Oct 31, 2014 at 9:03:43 AM

Latest Report: Oct 31, 2014 at 8:20 AM


Visibility: 1 mi

Pressure: 30.33 "Hg

Humidity: 100%

Dew point: 46 °F

Location of ErdingLocation

Historic Weather in Erding — Graph

°F

Erding temperature yesterday

Maximum temperature yesterday: 50 °F (at 12:20 PM)
Minimum temperature yesterday: 37 °F (at 2:20 AM)
Average temperature yesterday: 46 °F

Past Weeks' High & Low Weather Summary

 TemperatureHumidityPressure
High73 °F (Oct 19, 3:20 PM)100% (Oct 17, 1:20 AM)30.36 "Hg (Oct 17, 1:20 AM)
Low34 °F (Oct 25, 6:20 AM)50% (Oct 19, 3:20 PM)29.65 "Hg (Oct 21, 8:20 PM)
Average49 °F91%30.13 "Hg
* Reported Oct 16 8:20 AM — Oct 31 7:20 AM, Erding, Weather by CustomWeather, © 2014

Note: Actual official high and low records may vary slightly from our data, if they occured in-between our weather recording intervals... More about our weather records

Advertising

Erding weather history for previous 24 hours

 ConditionsComfort  
Time TempWeatherWind HumidityBarometerVisibility
7:20 AM
Oct 31
45 °FQuite cool.6 mph100%30.33 "Hg1 mi
6:20 AM45 °FQuite cool.1 mph100%30.33 "Hg0 mi
5:20 AM45 °FQuite cool.2 mph100%30.33 "Hg0 mi
4:20 AM45 °FQuite cool.3 mph100%30.33 "Hg0 mi
3:20 AM45 °FQuite cool.5 mph100%30.33 "Hg0 mi
2:20 AM43 °FQuite cool.1 mph100%30.33 "Hg0 mi
1:20 AM45 °FQuite cool.2 mph100%30.33 "Hg0 mi
12:20 AM45 °FQuite cool.1 mph100%30.36 "Hg1 mi
11:20 PM
Oct 30
45 °FQuite cool.2 mph100%30.33 "Hg0 mi
10:20 PM46 °FCool.2 mph100%30.33 "Hg0 mi
9:20 PM48 °FCool.2 mph100%30.33 "Hg0 mi
8:20 PM50 °FCool.2 mph100%30.33 "Hg1 mi
7:20 PM50 °FCool.1 mph100%30.33 "Hg2 mi
6:20 PM50 °FCool.1 mph100%30.30 "Hg2 mi
5:20 PM50 °FCool.2 mph100%30.30 "Hg2 mi
4:20 PM50 °FPartly sunny.3 mph94%30.30 "Hg6 mi
3:20 PM50 °FDrizzle. Partly sunny.5 mph100%30.30 "Hg6 mi
2:20 PM50 °FDrizzle. Partly sunny.3 mph100%30.30 "Hg4 mi
1:20 PM50 °FPartly sunny.5 mph94%30.30 "HgN/A
1:02 PM50 °FDrizzle. Partly sunny.6 mph94%30.30 "Hg4 mi
12:20 PM50 °FDrizzle. Partly sunny.6 mph94%30.27 "Hg4 mi
11:20 AM48 °FDrizzle. Partly sunny.6 mph100%30.27 "HgN/A
10:20 AM46 °FDrizzle. Partly sunny.6 mph100%30.27 "HgN/A
9:20 AM46 °FPartly sunny.3 mph93%30.27 "HgN/A
Weather by CustomWeather, © 2014

See weather overviewHow to use our weather pages